This is the latest recevied weather packets stored in our database for station/object K5NWZ. If no packets are shown the sender has not sent any weather packets the latest 10 day(s).
| Time | Temp. | Humidity | Pressure | Rain* | Wind** | Luminosity | Snow |
|---|---|---|---|---|---|---|---|
| 1788043425 | 27.78° C | 37% | 1024.9 hPa | 0 mm | - | 154 W/m² | - |
| 1788043124 | 27.78° C | 37% | 1024.9 hPa | 0 mm | - | 161 W/m² | - |
| 1788042820 | 27.22° C | 38% | 1024.9 hPa | 0 mm | - | 157 W/m² | - |
| 1788042518 | 27.78° C | 38% | 1024.8 hPa | 0 mm | - | 164 W/m² | - |
| 1788042214 | 27.78° C | 38% | 1024.8 hPa | 0 mm | - | 190 W/m² | - |
| 1788041910 | 28.33° C | 37% | 1024.7 hPa | 0 mm | - | 204 W/m² | - |
| 1788041605 | 28.89° C | 36% | 1024.7 hPa | 0 mm | - | 187 W/m² | - |
| 1788041305 | 28.89° C | 34% | 1024.8 hPa | 0 mm | - | 218 W/m² | - |
| 1788041004 | 29.44° C | 35% | 1025.2 hPa | 0 mm | - | 216 W/m² | - |
| 1788040703 | 29.44° C | 35% | 1025.4 hPa | 0 mm | - | 199 W/m² | - |
| 1788040398 | 29.44° C | 33% | 1025.4 hPa | 0 mm | - | 183 W/m² | - |
| 1788040093 | 30° C | 31% | 1024.9 hPa | 0 mm | - | 140 W/m² | - |
| 1788039788 | 30° C | 31% | 1024.8 hPa | 0 mm | - | 124 W/m² | - |
| 1788039483 | 30° C | 30% | 1024.8 hPa | 0 mm | - | 148 W/m² | - |
| 1788039178 | 30° C | 31% | 1024.6 hPa | 0 mm | - | 187 W/m² | - |
| 1788038873 | 30° C | 32% | 1024.8 hPa | 0 mm | - | 203 W/m² | - |
| 1788038569 | 30° C | 33% | 1024.8 hPa | 0 mm | - | 205 W/m² | - |
| 1788038267 | 30° C | 32% | 1024.7 hPa | 0 mm | - | 233 W/m² | - |
| 1788037963 | 30° C | 32% | 1024.5 hPa | 0 mm | - | 252 W/m² | - |
| 1788037663 | 30° C | 32% | 1024.7 hPa | 0 mm | - | 359 W/m² | - |
| 1788037358 | 29.44° C | 32% | 1025.1 hPa | 0 mm | - | 217 W/m² | - |
| 1788037051 | 28.89° C | 33% | 1025.2 hPa | 0 mm | - | 92 W/m² | - |
| 1788036747 | 29.44° C | 32% | 1025.4 hPa | 0 mm | - | 86 W/m² | - |
| 1788036444 | 30° C | 32% | 1025.2 hPa | 0 mm | - | 114 W/m² | - |
| 1788036139 | 32.78° C | 29% | 1025.6 hPa | 0 mm | - | 114 W/m² | - |
* Rain latest hour (hover to see other rain measurements)
** Current wind speed in m/s (hover to see current wind gust speed)